This is the latest recevied weather packets stored in our database for station/object WB4ZUT. If no packets are shown the sender has not sent any weather packets the latest 10 day(s).
| Time | Temp. | Humidity | Pressure | Rain* | Wind** | Luminosity | Snow |
|---|---|---|---|---|---|---|---|
| 1778191518 | 18.89° C | 38% | 1015.4 hPa | 0 mm | - | 360 W/m² | - |
| 1778191215 | 18.89° C | 36% | 1015.3 hPa | 0 mm | - | 386 W/m² | - |
| 1778190911 | 18.89° C | 36% | 1015.1 hPa | 0 mm | - | 386 W/m² | - |
| 1778190609 | 19.44° C | 37% | 1015.4 hPa | 0 mm | - | 415 W/m² | - |
| 1778190306 | 18.89° C | 37% | 1015.6 hPa | 0 mm | - | 448 W/m² | - |
| 1778190001 | 18.89° C | 36% | 1015.3 hPa | 0 mm | - | 467 W/m² | - |
| 1778189699 | 18.89° C | 38% | 1015.1 hPa | 0 mm | - | 465 W/m² | - |
| 1778189395 | 18.89° C | 40% | 1015.2 hPa | 0 mm | - | 491 W/m² | - |
| 1778189091 | 18.89° C | 39% | 1015.1 hPa | 0 mm | - | 499 W/m² | - |
| 1778188788 | 18.89° C | 41% | 1015 hPa | 0 mm | - | 513 W/m² | - |
| 1778188484 | 18.89° C | 37% | 1015 hPa | 0 mm | - | 525 W/m² | - |
| 1778188181 | 18.89° C | 38% | 1015 hPa | 0 mm | - | 519 W/m² | - |
| 1778187878 | 18.89° C | 40% | 1015 hPa | 0 mm | - | 528 W/m² | - |
| 1778187575 | 18.33° C | 39% | 1015.1 hPa | 0 mm | - | 553 W/m² | - |
| 1778187272 | 18.89° C | 37% | 1015.2 hPa | 0 mm | - | 567 W/m² | - |
| 1778186968 | 18.33° C | 42% | 1015.4 hPa | 0 mm | - | 547 W/m² | - |
| 1778186665 | 18.33° C | 40% | 1015.4 hPa | 0 mm | - | 550 W/m² | - |
| 1778186363 | 18.89° C | 38% | 1015.3 hPa | 0 mm | - | 572 W/m² | - |
| 1778186060 | 18.33° C | 40% | 1015.2 hPa | 0 mm | - | 596 W/m² | - |
| 1778185756 | 18.89° C | 39% | 1015.3 hPa | 0 mm | - | 596 W/m² | - |
| 1778185453 | 18.33° C | 41% | 1015.2 hPa | 0 mm | - | 607 W/m² | - |
| 1778185149 | 17.78° C | 42% | 1015.4 hPa | 0 mm | - | 641 W/m² | - |
| 1778184844 | 17.78° C | 41% | 1015.6 hPa | 0 mm | - | 661 W/m² | - |
| 1778184541 | 18.33° C | 39% | 1015.7 hPa | 0 mm | - | 660 W/m² | - |
| 1778184237 | 18.33° C | 40% | 1015.7 hPa | 0 mm | - | 648 W/m² | - |
* Rain latest hour (hover to see other rain measurements)
** Current wind speed in m/s (hover to see current wind gust speed)